Tracking 23760 objects as of 28-Oct-2021
HD Live streaming from Space Station
objects crossing your sky now

BLOCK DM-SL R/B

Track BLOCK DM-SL R/B now!


NORAD ID: 28900
Int'l Code: 2005-044B
Perigee: 262.2 km
Apogee: 32,537.2 km
Inclination: 2.7 °
Period: 569.9 minutes
Semi major axis: 22770 km
RCS: 18.3139 m2 (large)
Launch date: November 8, 2005
Source: Sea Launch (SEAL)
Launch site: SEA LAUNCH (SEAL)

Note: This is a ROCKET BODY
aabbcc
Your satellite tracking list
Your tracking list is empty




NASA's NSSDC Master Catalog

Two Line Element Set (TLE):
1 28900U 05044B   21300.12044672  .00002580  00000-0  69764-3 0  9994
2 28900   2.7117 218.3840 7086976 201.4810 100.6645  2.52661448140379
Source of the keplerian elements: AFSPC